Weather in Fil'kino

Russia / Belgorod Oblast     50°31′31″N   38°19′55″E
temp.,
°C
wind,
m/s
gust,
m/s
humid.,
%
clouds,
%
prec.,
mm/h
press.,
hPa
HPBL,
m
24 may, tue
tue2400:00+6w008043 0.0 100910
03:00+5w22835 0.0 101010
06:00+7w24813 0.0 1010114
09:00+12wnw45605 0.0 1010702
12:00+15wnw344334 0.0 10102209
15:00+16wnw454292 0.0 10102472
18:00+14wnw3664100 0.0 1011218
21:00+9nw337697 0.0 101235
25 may, wed
wed2500:00+8nw118481 0.0 101310
03:00+7wnw22895 0.0 101424
06:00+7wnw38795 0.0 1015213
09:00+13nw45645 0.0 1015662
12:00+16nw464763 0.0 10161621
15:00+17nw464547 0.0 10162127
18:00+16nw46575 0.0 1016962
21:00+9e22820 0.0 101822
26 may, thu
thu2600:00+8s228576 0.0 101811
03:00+9sw358476 0.0 101766
06:00+11wsw378444 0.0 1017194
09:00+16sw5766100 0.0 1016557
12:00+19ssw7949100 0.0 10141985
15:00+15wsw81279100 0.8 10131082
18:00+11sw81589100 3.1 1012815
21:00+11wsw71296100 3.8 1012674
27 may, fri
fri2700:00+11sw5129716 0.0 1012320
03:00+10sw513968 0.0 1012343
06:00+11wsw614925 0.0 1011435
09:00+16w8137377 0.0 10111069
12:00+16wnw811706 0.3 10111205
15:00+19w812553 0.4 10112031
18:00+17wnw586910 0.1 10111216
21:00+12sw348777 0.1 101259
28 may, sat
sat2800:00+11ssw37925 0.0 1011127
03:00+11ssw514914 0.0 1009304
06:00+13ssw6178459 0.0 1007463
09:00+14wsw71289100 0.4 1008842
12:00+13wnw41092100 2.8 1009614
15:00+16wsw697144 3.4 10101152
18:00+16wsw596956 0.0 10101221
21:00+12wsw378292 0.1 1012124